STARLINK-36874, 67981

Orbit data source: Space-Track

STARLINK-36874, 67981 is a payload satellite owned by SpaceX/Seattle (US) in SSO that was launched on Wed, 25 Feb 2026 UTC via an FALCON 9 launch vehicle from the Air Force Western Test Range (AFWTR). Payload-class satellites include a variety of spacecraft equipped with specific instruments for various scientific and technological missions. These include communications satellites like Starlink; space stations such as the ISS; scientific satellites like the Hubble; Earth observation satellites from companies like Planet Labs, Umbra, and HawkEye 360; GPS; miniature CubeSats for education and research; and military/defense satellites.

Loading next visibility...
Identifier
67981, 2026-038W
Orbit
SSO
Country
Flag of USUS
Related business
Manufacturer
SpaceX/Seattle
Mission
Operational Commercial Communications
Bus & Motor
STARLINK V2MO, Unknown motor
Mass
575 kg wet, ~530 kg dry
Launch date (UTC)
2026-02-25 (4 months ago)
Launch vehicle
FALCON 9
Launch site
Air Force Western Test Range (AFWTR)
Object type
Payload
Rocket body
Debris
Shape & HBR
Box + 2 Pan, 17.7 m
Radar Cross Section
36.964 m², Large (>1 m²)

Expand to show TLE details & history
Last TLE update: 22 hours ago

TLE from 22 hours ago
0 STARLINK-36874
1 67981U 26038W   26170.94383421  .00012552  00000-0  39050-3 0  9995
2 67981  97.2849 180.6660 0001674  90.5496 269.5938 15.33442004 18917
Epoch: 2026-06-19T22:39Z
TLE epoch observation values (Epoch: 2026-06-19T22:39:07.275Z)
Latitude
-0.0001°
Longitude
-67.27985°
Altitude
468.672 km
Speed
7.632 km/s
True Right ascension
12h 02m 39s
True Declination
0° 00' 00"
Sunlit
Object was in daylight at epoch
Visualization orbit readout
Latitude
Unknown
Longitude
Unknown
Altitude
Unknown
Speed
Unknown
Apparent Right ascension
Unknown
Apparent Declination
Unknown
Sunlit
N/A
Visualization observer readout
Local Sidereal Time
07:16:22
Azimuth
Unknown
Elevation
Unknown
Doppler factor
Unknown
Orbital elements
Apogee altitude
463.64 km
Perigee altitude
461.35 km
Semi-major axis
6,840.632 km
Eccentricity
0.00017
Inclination
97.2849°
RAAN
180.666°
Arg. of periapsis
90.5496°
True anomaly
269.57462°
Mean anomaly
269.5938°
Eccentric anomaly
269.58421°
Mean motion
3.83618 °/min
Orbital period
93.84 mins
BSTAR
0.0003905
Loading maneuver chart data...
Computing Atmospheric mass density...
Loading historical data...
Loading historical data...
Loading historical data...
Loading historical data...
Loading historical data...
Loading historical data...
Loading historical data...

Documentation

Showing up to 5 results
|